Regional Weather Roundup
Issued by NWS

Home | Current Version | Previous Version | Graphics & Text | Print | Product List | Glossary On
Versions: 1 2 3 4 5 6 7 8 9 10 11 12 13 14 15 16 17 18 19 20 21 22 23 24 25 26
000
ASUS45 KTFX 240510
RWRMT
MONTANA REGIONAL WEATHER ROUNDUP
NATIONAL WEATHER SERVICE GREAT FALLS MT
1100 PM MDT WED AUG 23 2017

NOTE: "FAIR" INDICATES FEW OR NO CLOUDS BELOW 12000 FEET WITH NO
SIGNIFICANT WEATHER AND/OR OBSTRUCTIONS TO VISIBILITY.

MTZ001>007-043-240600-
WEST OF THE DIVIDE

CITY           SKY/WX    TMP DP  RH WIND       PRES   REMARKS
KALISPELL      MOCLDY    73  40  30 CALM      29.91R
MISSOULA       MOCLDY    73  42  32 NW6       29.94S HAZE
BUTTE          CLOUDY    70  37  29 SW6       30.09F
MULLAN PASS    MOCLDY    63  39  41 S5        30.12F
ANACONDA         N/A     70  36  28 SW7       30.05F
DEER LODGE       N/A     70  43  37 W5        30.04F
EUREKA           N/A     77  41  27 MISG      29.87F
HAMILTON         N/A     66  48  52 E5        29.98S
LIBBY            N/A     75  45  33 CALM      29.87F
PLAINS           N/A     70  46  42 CALM      29.93S
RONAN            N/A     70  45  40 E3        29.99S
$$

MTZ008-052>055-240600-
SOUTHWEST MONTANA

CITY           SKY/WX    TMP DP  RH WIND       PRES   REMARKS
BOZEMAN        CLOUDY    64  44  48 CALM      30.02S
DILLON         CLOUDY    66  42  41 S6        30.08R
W YELLOWSTONE  CLOUDY    55  54  94 SW5       30.22F
ENNIS          CLOUDY    64  43  45 S10       30.15S
THREE FORKS      N/A     77  42  28 SW7       30.00R
TWIN BRIDGES     N/A     72  38  29 E2        30.05F
$$

MTZ009-010-012-014-046-048-049-054-240600-
EAST SLOPES AND CENTRAL MONTANA

CITY           SKY/WX    TMP DP  RH WIND       PRES   REMARKS
CUT BANK       MOCLDY    73  37  27 W10       29.91F
GREAT FALLS    PTCLDY    68  33  27 W5        29.93S
MALMSTROM AFB  PTCLDY    74  34  23 E7        29.91S
HELENA         CLOUDY    78  39  24 NE5       29.96R
AUGUSTA          N/A     72  35  25 NW13      29.97F
BOWMANS CRNR     N/A     70  35  27 W5        29.96R
CHOTEAU          N/A     75  36  23 W5        29.95F
CONRAD           N/A     67  39  35 W5        29.94F
FAIRFIELD        N/A     74  36  25 CALM      29.93S
POWER            N/A     68  31  25 NW5       29.92F
RAYNESFORD       N/A     65  36  33 CALM      29.95F
ULM              N/A     68  35  30 SE5       29.93R
$$

MTZ011-013-016-021-045-047-050-051-240600-
NORTH CENTRAL MONTANA

CITY           SKY/WX    TMP DP  RH WIND       PRES   REMARKS
HAVRE          CLEAR     70  37  29 CALM      29.82F
LEWISTOWN      CLOUDY    66  38  35 SE8       29.97S
N BAR RANCH      N/A     64  34  32 W10       30.03S
CHINOOK          N/A     70  43  37 E5        29.83S
DENTON           N/A     71  33  24 S10       29.88F
GEYSER           N/A     68  33  28 SW9       29.95S
GRASS RANGE      N/A     66  34  30 SW6       29.93S
JUDITH GAP       N/A     70  33  25 S10       30.01S
WINIFRED       MOCLDY    76  32  19 SE16      29.91F
$$

MTZ017>020-022>027-061-062-240600-
NORTHEAST MONTANA

CITY           SKY/WX    TMP DP  RH WIND       PRES   REMARKS
GLASGOW        CLEAR     76  40  27 E17       29.88R
JORDAN           N/A     72  36  26 E7        29.89R
SIDNEY         CLEAR     69  47  45 N9        29.92R
WOLF POINT     CLEAR     72  43  35 E10       29.90S
MALTA          CLEAR     72  41  33 E8        29.85S
PLENTYWOOD       N/A     64  52  63 E14       29.96S
POPLAR           N/A     70  46  43 E14       29.91S
SCOBEY           N/A     67  47  48 E16       29.94R
$$

MTZ028>42-056>058-240600-
SOUTHCENTRAL AND SOUTHEAST MONTANA

CITY           SKY/WX    TMP DP  RH WIND       PRES   REMARKS
BAKER          CLEAR     64  45  49 SE9       29.97S
BILLINGS       PTCLDY    79  34  19 S6        29.93S
LIVINGSTON     PTCLDY    75  39  27 VRB3      30.01R
MILES CITY     CLEAR     75  38  26 E6        29.89S
BIG TIMBER     CLEAR     75  37  25 W12       30.02F
HARLOWTON        N/A     68  32  25 MISG      29.99S
LAUREL           N/A     74  35  24 CALM      29.93S
$$

REGIONAL REPORTS...DAKOTAS

CITY           SKY/WX    TMP DP  RH WIND       PRES   REMARKS
WILLISTON      CLEAR     69  51  52 VRB3      29.95R
MINOT          CLEAR     59  53  80 E13       30.00R
DICKINSON      CLEAR     65  54  67 S9        29.95S
BEACH            N/A     61  45  55 S6        29.99S
CROSBY           N/A     57  55  94 E15       30.00S
TIOGA            N/A     61  59  94 E14       30.00S
WATFORD CITY     N/A     66  52  59 E10       29.94R
BISMARCK       CLEAR     63  57  81 SE3       29.95S
GRAND FORKS    CLOUDY    57  55  93 NE6       30.08R
FARGO          CLOUDY    59  54  83 E8        30.03F
BUFFALO SD       N/A     68  55  63 E9        29.92S
RAPID CITY     CLEAR     69  54  58 SW6       29.99R
$$

REGIONAL REPORTS...WYOMING/IDAHO/WASHINGTON

CITY           SKY/WX    TMP DP  RH WIND       PRES   REMARKS
GILLETTE       CLOUDY    71  42  35 S5        30.00S
SHERIDAN       PTCLDY    61  43  51 N5        29.97F
BUFFALO WY     CLOUDY    72  35  25 W7        30.06S
CODY           CLEAR     73  41  31 SW8       30.06F
YELLOWSTONE LA   N/A     48  48 100 NW3       30.31F
IDAHO FALLS    CLEAR     62  48  60 SW6       30.12F
SALMON         CLOUDY    71  49  45 E6        29.98R
BOISE          MOCLDY    76  50  40 SE10      29.95S
SPOKANE        CLOUDY    72  53  51 S5        29.91S
$$

REGIONAL REPORTS...ALBERTA

CITY           SKY/WX    TMP DP  RH WIND       PRES   REMARKS
EDMONTON       LGT RAIN  70  55  60 SE12G17   29.81S
CALGARY        PTCLDY    72  43  35 S6        29.80S
LETHBRIDGE     CLEAR     63  39  42 SW13      29.83R
MEDICINE HAT   CLEAR     70  50  49 VRB2      29.78S
$$

REGIONAL REPORTS...SASKATCHEWAN

CITY           SKY/WX    TMP DP  RH WIND       PRES   REMARKS
SWIFT CURRENT  MOCLDY    66  45  45 SE16G22   29.90F
REGINA         CLEAR     61  52  72 E20G28    30.01S
$$




USA.gov is the U.S. government's official web portal to all federal, state and local government web resources and services.